Time,TemperatureF,DewpointF,PressureIn,WindDirection,WindDirectionDegrees,WindSpeedMPH,WindSpeedGustMPH,Humidity,HourlyPrecipIn,Conditions,Clouds,dailyrainin,SoftwareType,DateUTC
2013-07-12 00:14:00,62.3,59.0,29.93,North,350,0.0,3.0,89,0.00,,,0.00,weatherlink.com 1.10,2013-07-12 04:14:00,
2013-07-12 00:29:00,62.0,59.0,29.93,West,279,2.0,3.0,88,0.00,,,0.00,weatherlink.com 1.10,2013-07-12 04:29:00,
2013-07-12 00:44:00,62.2,59.0,29.93,NNE,21,0.0,5.0,88,0.00,,,0.00,weatherlink.com 1.10,2013-07-12 04:44:00,
2013-07-12 00:59:00,62.2,58.0,29.93,NNW,335,2.0,3.0,87,0.00,,,0.00,weatherlink.com 1.10,2013-07-12 04:59:00,
2013-07-12 01:14:00,61.6,58.0,29.93,NNE,33,2.0,3.0,87,0.00,,,0.00,weatherlink.com 1.10,2013-07-12 05:14:00,
2013-07-12 01:29:00,61.1,57.0,29.93,NNW,347,3.0,3.0,87,0.00,,,0.00,weatherlink.com 1.10,2013-07-12 05:29:00,
2013-07-12 01:44:00,60.9,57.0,29.93,NNW,334,1.0,3.0,87,0.00,,,0.00,weatherlink.com 1.10,2013-07-12 05:44:00,
2013-07-12 02:00:00,60.3,57.0,29.94,NNE,22,0.0,2.0,88,0.00,,,0.00,weatherlink.com 1.10,2013-07-12 06:00:00,
2013-07-12 02:15:00,60.3,57.0,29.94,NNW,340,1.0,4.0,88,0.00,,,0.00,weatherlink.com 1.10,2013-07-12 06:15:00,
2013-07-12 02:30:00,60.2,57.0,29.94,NW,313,2.0,6.0,89,0.00,,,0.00,weatherlink.com 1.10,2013-07-12 06:30:00,
2013-07-12 02:45:00,60.3,57.0,29.94,West,279,2.0,4.0,88,0.00,,,0.00,weatherlink.com 1.10,2013-07-12 06:45:00,
2013-07-12 03:00:00,60.3,57.0,29.95,NNW,332,1.0,4.0,87,0.00,,,0.00,weatherlink.com 1.10,2013-07-12 07:00:00,
2013-07-12 03:15:00,60.8,56.0,29.95,WNW,291,6.0,11.0,85,0.00,,,0.00,weatherlink.com 1.10,2013-07-12 07:15:00,
2013-07-12 03:30:00,60.7,57.0,29.96,NNE,22,2.0,6.0,86,0.00,,,0.00,weatherlink.com 1.10,2013-07-12 07:30:00,
2013-07-12 03:45:00,60.1,56.0,29.96,NNW,328,0.0,3.0,87,0.00,,,0.00,weatherlink.com 1.10,2013-07-12 07:45:00,
2013-07-12 04:00:00,59.8,56.0,29.96,WNW,293,1.0,4.0,88,0.00,,,0.00,weatherlink.com 1.10,2013-07-12 08:00:00,
2013-07-12 04:15:00,59.5,56.0,29.97,SSE,163,1.0,1.0,89,0.00,,,0.00,weatherlink.com 1.10,2013-07-12 08:15:00,
2013-07-12 04:30:00,58.6,56.0,29.98,East,92,0.0,2.0,90,0.00,,,0.00,weatherlink.com 1.10,2013-07-12 08:30:00,
2013-07-12 04:45:00,57.7,55.0,29.98,East,91,0.0,2.0,91,0.00,,,0.00,weatherlink.com 1.10,2013-07-12 08:45:00,
2013-07-12 05:00:00,57.7,55.0,29.99,NE,34,0.0,2.0,92,0.00,,,0.00,weatherlink.com 1.10,2013-07-12 09:00:00,
2013-07-12 05:15:00,57.3,55.0,29.99,NE,35,0.0,2.0,92,0.00,,,0.00,weatherlink.com 1.10,2013-07-12 09:15:00,
2013-07-12 05:30:00,57.4,55.0,30.00,East,88,2.0,5.0,92,0.00,,,0.00,weatherlink.com 1.10,2013-07-12 09:30:00,
2013-07-12 05:45:00,58.0,55.0,30.00,ENE,63,0.0,3.0,91,0.00,,,0.00,weatherlink.com 1.10,2013-07-12 09:45:00,
2013-07-12 06:00:00,58.1,56.0,30.00,NE,50,1.0,2.0,91,0.00,,,0.00,weatherlink.com 1.10,2013-07-12 10:00:00,
2013-07-12 06:15:00,58.8,56.0,30.01,NNE,19,2.0,5.0,90,0.00,,,0.00,weatherlink.com 1.10,2013-07-12 10:15:00,
2013-07-12 06:30:00,59.3,56.0,30.01,North,350,0.0,4.0,89,0.00,,,0.00,weatherlink.com 1.10,2013-07-12 10:30:00,
2013-07-12 06:45:00,60.5,57.0,30.02,NNW,344,1.0,4.0,88,0.00,,,0.00,weatherlink.com 1.10,2013-07-12 10:45:00,
2013-07-12 07:00:00,61.1,57.0,30.02,North,350,2.0,5.0,87,0.00,,,0.00,weatherlink.com 1.10,2013-07-12 11:00:00,
2013-07-12 07:15:00,62.0,58.0,30.02,North,360,0.0,4.0,86,0.00,,,0.00,weatherlink.com 1.10,2013-07-12 11:15:00,
2013-07-12 07:30:00,63.5,58.0,30.02,North,355,4.0,5.0,83,0.00,,,0.00,weatherlink.com 1.10,2013-07-12 11:30:00,
2013-07-12 07:45:00,64.9,58.0,30.02,NNW,344,2.0,5.0,78,0.00,,,0.00,weatherlink.com 1.10,2013-07-12 11:45:00,
2013-07-12 08:00:00,65.4,58.0,30.02,North,350,3.0,7.0,76,0.00,,,0.00,weatherlink.com 1.10,2013-07-12 12:00:00,
2013-07-12 08:15:00,66.1,58.0,30.03,NW,319,1.0,5.0,75,0.00,,,0.00,weatherlink.com 1.10,2013-07-12 12:15:00,
2013-07-12 08:31:00,67.0,59.0,30.04,NNW,331,1.0,5.0,76,0.00,,,0.00,weatherlink.com 1.10,2013-07-12 12:31:00,
2013-07-12 08:46:00,68.0,59.0,30.03,West,265,1.0,4.0,73,0.00,,,0.00,weatherlink.com 1.10,2013-07-12 12:46:00,
2013-07-12 09:01:00,67.6,59.0,30.04,NW,304,2.0,4.0,73,0.00,,,0.00,weatherlink.com 1.10,2013-07-12 13:01:00,
2013-07-12 09:16:00,67.8,59.0,30.03,West,281,1.0,3.0,74,0.00,,,0.00,weatherlink.com 1.10,2013-07-12 13:16:00,
2013-07-12 09:31:00,68.8,59.0,30.04,NNW,338,0.0,3.0,72,0.00,,,0.00,weatherlink.com 1.10,2013-07-12 13:31:00,
2013-07-12 09:46:00,70.8,60.0,30.03,SSW,213,3.0,3.0,69,0.00,,,0.00,weatherlink.com 1.10,2013-07-12 13:46:00,
2013-07-12 10:01:00,72.2,58.0,30.03,SSW,196,1.0,4.0,62,0.00,,,0.00,weatherlink.com 1.10,2013-07-12 14:01:00,
2013-07-12 10:16:00,73.2,57.0,30.03,NE,42,3.0,5.0,58,0.00,,,0.00,weatherlink.com 1.10,2013-07-12 14:16:00,
2013-07-12 10:31:00,72.5,57.0,30.04,East,92,6.0,6.0,59,0.00,,,0.00,weatherlink.com 1.10,2013-07-12 14:31:00,
2013-07-12 10:46:00,73.3,57.0,30.04,SE,146,2.0,6.0,58,0.00,,,0.00,weatherlink.com 1.10,2013-07-12 14:46:00,
2013-07-12 11:01:00,73.8,58.0,30.04,East,101,3.0,7.0,59,0.00,,,0.00,weatherlink.com 1.10,2013-07-12 15:01:00,
2013-07-12 11:16:00,74.0,59.0,30.04,NE,46,3.0,8.0,60,0.00,,,0.00,weatherlink.com 1.10,2013-07-12 15:16:00,
2013-07-12 11:31:00,74.1,60.0,30.04,ESE,103,3.0,7.0,61,0.00,,,0.00,weatherlink.com 1.10,2013-07-12 15:31:00,
2013-07-12 11:46:00,74.0,61.0,30.04,ENE,65,0.0,8.0,63,0.00,,,0.00,weatherlink.com 1.10,2013-07-12 15:46:00,
2013-07-12 12:01:00,75.9,61.0,30.04,ENE,63,4.0,6.0,60,0.00,,,0.00,weatherlink.com 1.10,2013-07-12 16:01:00,
2013-07-12 12:16:00,75.0,60.0,30.04,ESE,112,4.0,8.0,60,0.00,,,0.00,weatherlink.com 1.10,2013-07-12 16:16:00,
2013-07-12 12:31:00,75.2,60.0,30.04,NNE,32,2.0,7.0,60,0.00,,,0.00,weatherlink.com 1.10,2013-07-12 16:31:00,
2013-07-12 12:46:00,75.3,59.0,30.04,NE,38,2.0,9.0,58,0.00,,,0.00,weatherlink.com 1.10,2013-07-12 16:46:00,
2013-07-12 13:01:00,74.9,61.0,30.04,SE,135,1.0,6.0,63,0.00,,,0.00,weatherlink.com 1.10,2013-07-12 17:01:00,
2013-07-12 13:16:00,74.8,61.0,30.04,SE,146,3.0,6.0,62,0.00,,,0.00,weatherlink.com 1.10,2013-07-12 17:16:00,
2013-07-12 13:31:00,74.3,61.0,30.04,East,89,1.0,8.0,63,0.00,,,0.00,weatherlink.com 1.10,2013-07-12 17:31:00,
2013-07-12 13:46:00,74.9,62.0,30.04,ESE,117,3.0,5.0,65,0.00,,,0.00,weatherlink.com 1.10,2013-07-12 17:46:00,
2013-07-12 14:16:00,76.5,62.0,30.04,South,187,2.0,5.0,61,0.00,,,0.00,weatherlink.com 1.10,2013-07-12 18:16:00,
2013-07-12 14:31:00,75.8,61.0,30.04,ESE,105,3.0,8.0,61,0.00,,,0.00,weatherlink.com 1.10,2013-07-12 18:31:00,
2013-07-12 14:46:00,75.2,61.0,30.04,East,99,7.0,9.0,61,0.00,,,0.00,weatherlink.com 1.10,2013-07-12 18:46:00,
2013-07-12 15:01:00,76.0,61.0,30.04,SE,144,1.0,5.0,60,0.00,,,0.00,weatherlink.com 1.10,2013-07-12 19:01:00,
2013-07-12 15:16:00,75.5,61.0,30.04,ENE,60,3.0,7.0,60,0.00,,,0.00,weatherlink.com 1.10,2013-07-12 19:16:00,
2013-07-12 15:31:00,76.4,61.0,30.04,ESE,107,5.0,9.0,59,0.00,,,0.00,weatherlink.com 1.10,2013-07-12 19:31:00,
2013-07-12 15:46:00,76.1,62.0,30.04,ENE,77,2.0,8.0,62,0.00,,,0.00,weatherlink.com 1.10,2013-07-12 19:46:00,
2013-07-12 16:16:00,76.3,62.0,30.04,WSW,243,2.0,5.0,61,0.00,,,0.00,weatherlink.com 1.10,2013-07-12 20:16:00,
2013-07-12 16:31:00,77.2,62.0,30.03,NE,44,5.0,7.0,60,0.00,,,0.00,weatherlink.com 1.10,2013-07-12 20:31:00,
2013-07-12 16:46:00,76.5,61.0,30.04,NE,34,1.0,6.0,59,0.00,,,0.00,weatherlink.com 1.10,2013-07-12 20:46:00,
2013-07-12 17:01:00,76.6,62.0,30.04,ENE,59,1.0,5.0,61,0.00,,,0.00,weatherlink.com 1.10,2013-07-12 21:01:00,
2013-07-12 17:16:00,75.5,62.0,30.04,SSE,148,3.0,8.0,64,0.00,,,0.00,weatherlink.com 1.10,2013-07-12 21:16:00,
2013-07-12 17:31:00,74.9,62.0,30.04,SSE,159,0.0,6.0,65,0.00,,,0.00,weatherlink.com 1.10,2013-07-12 21:31:00,
2013-07-12 17:46:00,75.6,63.0,30.04,ESE,117,4.0,5.0,65,0.00,,,0.00,weatherlink.com 1.10,2013-07-12 21:46:00,
2013-07-12 18:01:00,75.3,62.0,30.04,ESE,109,0.0,6.0,64,0.00,,,0.00,weatherlink.com 1.10,2013-07-12 22:01:00,
2013-07-12 18:16:00,75.2,63.0,30.04,SE,138,0.0,3.0,65,0.00,,,0.00,weatherlink.com 1.10,2013-07-12 22:16:00,
2013-07-12 18:46:00,74.3,63.0,30.05,ESE,104,1.0,4.0,67,0.00,,,0.00,weatherlink.com 1.10,2013-07-12 22:46:00,
2013-07-12 19:01:00,73.9,63.0,30.05,East,100,2.0,5.0,69,0.00,,,0.00,weatherlink.com 1.10,2013-07-12 23:01:00,
2013-07-12 19:16:00,73.6,63.0,30.05,SE,144,3.0,6.0,69,0.00,,,0.00,weatherlink.com 1.10,2013-07-12 23:16:00,
2013-07-12 19:31:00,73.3,63.0,30.05,SE,132,0.0,3.0,71,0.00,,,0.00,weatherlink.com 1.10,2013-07-12 23:31:00,
2013-07-12 19:46:00,72.8,63.0,30.06,ESE,104,0.0,5.0,72,0.00,,,0.00,weatherlink.com 1.10,2013-07-12 23:46:00,
2013-07-12 20:02:00,72.2,63.0,30.06,SW,221,0.0,4.0,73,0.00,,,0.00,weatherlink.com 1.10,2013-07-13 00:02:00,
2013-07-12 20:17:00,71.7,63.0,30.06,SSW,203,2.0,2.0,75,0.00,,,0.00,weatherlink.com 1.10,2013-07-13 00:17:00,
2013-07-12 20:32:00,71.2,63.0,30.07,South,176,0.0,2.0,76,0.00,,,0.00,weatherlink.com 1.10,2013-07-13 00:32:00,
2013-07-12 20:47:00,70.3,63.0,30.07,SSE,163,0.0,2.0,78,0.00,,,0.00,weatherlink.com 1.10,2013-07-13 00:47:00,
2013-07-12 21:17:00,69.9,62.0,30.08,South,171,0.0,1.0,77,0.00,,,0.00,weatherlink.com 1.10,2013-07-13 01:17:00,
2013-07-12 21:32:00,69.7,62.0,30.09,SE,132,1.0,2.0,77,0.00,,,0.00,weatherlink.com 1.10,2013-07-13 01:32:00,
2013-07-12 21:47:00,69.4,62.0,30.10,SE,132,0.0,2.0,78,0.00,,,0.00,weatherlink.com 1.10,2013-07-13 01:47:00,
2013-07-12 22:33:00,68.6,60.0,30.10,SE,135,1.0,3.0,75,0.00,,,0.00,weatherlink.com 1.10,2013-07-13 02:33:00,
2013-07-12 22:47:00,68.3,60.0,30.10,ESE,119,0.0,3.0,75,0.00,,,0.00,weatherlink.com 1.10,2013-07-13 02:47:00,
2013-07-12 23:02:00,67.9,60.0,30.11,ESE,120,0.0,3.0,75,0.00,,,0.00,weatherlink.com 1.10,2013-07-13 03:02:00,
2013-07-12 23:17:00,67.7,60.0,30.11,SSW,196,2.0,3.0,75,0.00,,,0.00,weatherlink.com 1.10,2013-07-13 03:17:00,
2013-07-12 23:32:00,67.4,60.0,30.11,ESE,121,0.0,2.0,76,0.00,,,0.00,weatherlink.com 1.10,2013-07-13 03:32:00,